www.pogodaiklimat.ru

Погода и климат >> Архив погоды >> Австрия >> Пёрчах-ам-Вёртерзе


ПОГОДА в Пёрчах-ам-Вёртерзе

  • Прогноз погоды в Пёрчах-ам-Вёртерзе
  • Монитор погоды в Пёрчах-ам-Вёртерзе

АРХИВ ПОГОДЫ в Пёрчах-ам-Вёртерзе

Время (UTC), дата Ветер
(напр.,м/с)
 
Видим.   Явления Облачность Т
(С)
Тd
(С)
f
(%)
Тe
(С)
Тes
(С)
Комфортность P
(гПа)
Po
(гПа)
Тmin
(С)
Tmax
(С)
R
(мм)
R24
(мм)
S
(см)
16 11.09 В 1 н/о н/о +20.6 +12.1 58 +24 +24 комфорт 1021.6 969.6
17 11.09 ЮВ 1 н/о н/о +19.2 +14.3 73 +22 +22 комфорт 1022.3 970.0
18 11.09 штиль 0 н/о н/о +16.5 +13.0 80 +16 +16 1023.2 970.4 +10.9 +22.2
19 11.09 С 1 н/о н/о +15.3 +13.3 88 +16 +16 1024.6 971.5 0.0
20 11.09 штиль 0 н/о н/о +14.3 +12.7 90 +14 +14 1025.5 972.2
21 11.09 С 1 н/о н/о +13.6 +12.5 93 +14 +14 1026.5 973.0 0.0
22 11.09 С 1 н/о н/о +14.0 +13.0 94 +14 +14 1026.8 973.4
23 11.09 С 2 н/о н/о +14.4 +12.5 88 +14 +14 1027.2 973.8
00 12.09 С 2 н/о н/о +13.7 +12.4 92 +13 +13 1027.9 974.3 0.0
01 12.09 С 2 н/о н/о +13.3 +11.6 89 +13 +13 1027.9 974.3
02 12.09 С 1 н/о н/о +12.7 +11.5 92 +13 +13 1028.5 974.7
03 12.09 С 1 н/о н/о +12.0 +11.5 97 +12 +12 1029.0 975.1
04 12.09 С 1 н/о н/о +12.1 +11.0 93 +12 +12 1029.7 975.7
05 12.09 С 1 н/о н/о +11.6 +10.7 94 +11 +11 1030.5 976.4
06 12.09 СЗ 2 н/о н/о +12.2 +11.1 93 +11 +11 1030.8 976.8 +11.3 +16.9 0.0
07 12.09 СЗ 2 н/о н/о +13.5 +10.9 84 +13 +13 1031.2 977.4
08 12.09 З 1 н/о н/о +15.6 +11.2 75 +16 +16 1031.1 977.7
09 12.09 СЗ 1 н/о н/о +18.0 +11.9 68 +19 +19 1030.9 977.9
10 12.09 ЮЗ 1 н/о н/о +19.8 +11.8 60 +22 +22 комфорт 1030.4 977.8
11 12.09 ЮЗ 1 н/о н/о +21.7 +12.1 54 +24 +24 комфорт 1029.9 977.6
12 12.09 ЮЗ 2 н/о н/о +22.7 +11.3 49 +25 +25 комфорт 1029.2 977.1
13 12.09 Ю 1 н/о н/о +23.6 +10.1 42 +25 +25 комфорт 1028.6 976.7
14 12.09 З 2 н/о н/о +23.5 +11.2 46 +25 +25 комфорт 1028.6 976.7
15 12.09 ЮЗ 1 н/о н/о +24.2 +11.5 45 +26 +26 жарко 1028.2 976.4 0.0
16 12.09 штиль 0 н/о н/о +23.8 +12.7 50 +26 +26 жарко 1028.0 976.2
17 12.09 Ю 1 н/о н/о +20.2 +14.1 68 +24 +24 комфорт 1028.7 976.3
18 12.09 В 1 н/о н/о +16.9 +13.5 80 +18 +18 1029.7 976.6 +12.0 +24.6 0.0
20 12.09 В 1 н/о н/о +14.4 +12.2 87 +15 +15 1031.2 977.6
21 12.09 штиль 0 н/о н/о +14.0 +12.2 89 +14 +14 1031.6 977.9
22 12.09 С 1 н/о н/о +14.3 +12.9 91 +15 +15 1032.2 978.5
23 12.09 штиль 0 н/о н/о +13.0 +12.1 94 +12 +12 1032.6 978.7
00 13.09 С 1 н/о н/о +13.1 +12.0 93 +13 +13 1032.7 978.8
01 13.09 СВ 1 н/о н/о +12.5 +11.4 93 +12 +12 1032.9 978.8
02 13.09 С 1 н/о н/о +11.9 +11.3 96 +12 +12 1033.1 978.9
03 13.09 С 1 н/о н/о +11.2 +10.7 97 +11 +11 1033.1 978.8
04 13.09 СВ 1 н/о н/о +10.8 +10.3 97 +10 +10 1033.7 979.3
05 13.09 С 1 н/о н/о +11.3 +10.9 97 +11 +11 1034.0 979.7
06 13.09 СЗ 1 н/о н/о +12.3 +11.5 95 +12 +12 1033.9 979.8 +10.7 +17.6
07 13.09 З 1 н/о н/о +13.8 +11.9 88 +14 +14 1033.6 979.8
08 13.09 штиль 0 н/о н/о +16.1 +12.3 78 +16 +16 1033.0 979.6
09 13.09 ЮЗ 1 н/о н/о +17.9 +12.7 72 +19 +19 1032.2 979.2
10 13.09 штиль 0 н/о н/о +20.0 +13.0 64 +22 +22 комфорт 1031.3 978.7
11 13.09 Ю 1 н/о н/о +21.3 +13.3 60 +24 +24 комфорт 1030.2 977.9
12 13.09 Ю 2 н/о н/о +22.1 +14.2 61 +25 +25 комфорт 1029.1 977.0
13 13.09 Ю 1 н/о н/о +23.5 +12.1 49 +25 +25 комфорт 1028.3 976.4
14 13.09 Ю 2 н/о н/о +24.0 +12.3 48 +26 +26 жарко 1027.4 975.7
15 13.09 ЮВ 1 н/о н/о +24.7 +13.3 49 +27 +27 жарко 1026.9 975.3
16 13.09 Ю 1 н/о н/о +25.1 +15.8 56 +28 +28 жарко 1026.7 975.3
17 13.09 штиль 0 н/о н/о +21.7 +16.4 72 +26 +26 душно 1027.4 975.4
18 13.09 СВ 1 н/о н/о +18.6 +14.7 78 +20 +20 1028.4 975.7 +12.1 +25.4
19 13.09 СВ 1 н/о н/о +17.0 +14.2 84 +18 +18 1029.5 976.5
20 13.09 СВ 1 н/о н/о +16.2 +14.3 89 +17 +17 1029.9 976.7
21 13.09 штиль 0 н/о н/о +15.2 +13.9 92 +15 +15 1030.7 977.3
22 13.09 штиль 0 н/о н/о +14.6 +13.8 95 +14 +14 1031.2 977.7
23 13.09 С 1 н/о н/о +14.5 +13.6 94 +15 +15 1031.3 977.7
00 14.09 С 1 н/о н/о +14.1 +13.5 96 +14 +14 1031.3 977.7
01 14.09 С 1 н/о н/о +13.5 +13.2 98 +14 +14 1031.5 977.7
02 14.09 штиль 0 н/о н/о +13.2 +12.8 97 +13 +13 1031.3 977.5
03 14.09 СВ 1 н/о н/о +12.6 +12.3 98 +12 +12 1031.7 977.7
04 14.09 штиль 0 н/о н/о +14.0 +13.7 98 +14 +14 1031.6 977.9
05 14.09 СЗ 1 н/о н/о +13.9 +13.4 97 +14 +14 1031.7 978.0
06 14.09 штиль 0 н/о н/о +13.7 +13.1 96 +13 +13 1032.2 978.4 +12.6 +18.7
07 14.09 штиль 0 н/о н/о +14.8 +13.5 92 +14 +14 1032.1 978.5
08 14.09 ЮЗ 1 н/о н/о +17.1 +14.0 82 +18 +18 1031.7 978.6
09 14.09 Ю 1 н/о н/о +19.3 +14.7 75 +22 +22 комфорт 1030.9 978.2
10 14.09 Ю 1 н/о н/о +20.3 +13.9 67 +24 +24 комфорт 1030.1 977.6
11 14.09 ЮВ 3 н/о н/о +22.6 +15.3 63 +26 +26 жарко 1028.9 976.9
12 14.09 ЮВ 2 н/о н/о +23.5 +15.6 61 +27 +27 душно 1028.0 976.2
13 14.09 ЮВ 2 н/о н/о +23.8 +13.3 52 +26 +26 жарко 1027.0 975.3
14 14.09 ЮВ 2 н/о н/о +24.5 +13.7 51 +27 +27 жарко 1026.2 974.6
15 14.09 ЮВ 2 н/о н/о +24.2 +15.0 56 +27 +27 жарко 1025.8 974.2
16 14.09 В 2 н/о н/о +23.5 +14.8 58 +26 +26 жарко 1025.8 974.1
17 14.09 В 2 н/о н/о +21.9 +14.8 64 +25 +25 комфорт 1026.5 974.5
18 14.09 В 1 н/о н/о +19.9 +14.9 73 +23 +23 комфорт 1027.6 975.2 +13.6 +25.1
19 14.09 С 1 н/о н/о +17.9 +14.8 82 +19 +19 1028.3 975.5
20 14.09 С 1 н/о н/о +17.2 +14.7 85 +18 +18 1028.4 975.5
21 14.09 В 1 н/о н/о +17.3 +14.7 85 +18 +18 1028.6 975.7
22 14.09 В 1 н/о н/о +17.9 +14.9 83 +19 +19 1028.5 975.7
23 14.09 ЮВ 1 н/о н/о +17.6 +14.9 84 +19 +19 1028.3 975.5
00 15.09 В 1 н/о н/о +17.5 +14.9 85 +19 +19 1028.2 975.4
01 15.09 штиль 0 н/о н/о +17.4 +15.2 87 +17 +17 1028.0 975.2
02 15.09 В 1 н/о н/о +17.0 +15.1 89 +18 +18 1028.0 975.1
03 15.09 штиль 0 н/о н/о +17.0 +15.3 90 +17 +17 1027.5 974.6
04 15.09 С 1 н/о н/о +16.8 +15.1 90 +18 +18 1027.0 974.1
05 15.09 штиль 0 н/о н/о +16.1 +15.1 94 +16 +16 1027.3 974.3
06 15.09 штиль 0 н/о н/о +17.0 +15.5 91 +17 +17 1027.2 974.3 +16.1 +20.2
07 15.09 штиль 0 н/о н/о +17.7 +15.9 89 +18 +18 1027.1 974.4
08 15.09 ЮВ 1 н/о н/о +18.3 +15.7 85 +20 +20 1026.9 974.3
09 15.09 Ю 1 н/о н/о +19.6 +16.1 80 +23 +23 комфорт 1026.1 973.8
10 15.09 Ю 1 н/о н/о +21.2 +16.6 75 +25 +25 комфорт 1025.3 973.3
11 15.09 Ю 1 н/о н/о +22.4 +15.0 63 +26 +26 жарко 1024.1 972.3
12 15.09 штиль 0 н/о н/о +23.7 +15.6 60 +27 +27 жарко 1023.0 971.5
13 15.09 ЮВ 1 н/о н/о +24.0 +16.3 62 +27 +27 жарко 1022.1 970.7
14 15.09 Ю 2 н/о н/о +24.9 +15.9 57 +28 +28 жарко 1021.1 969.9
15 15.09 ЮВ 2 н/о н/о +24.9 +16.0 58 +28 +28 жарко 1020.7 969.5
16 15.09 ЮВ 2 н/о н/о +24.0 +16.7 64 +28 +28 душно 1020.5 969.2
17 15.09 штиль 0 н/о н/о +22.2 +17.8 76 +27 +27 душно 1020.7 969.1
18 15.09 штиль 0 н/о н/о +19.2 +16.7 85 +21 +21 комфорт 1021.3 969.1 +16.9 +25.0
19 15.09 штиль 0 н/о н/о +18.3 +16.7 90 +19 +19 1021.8 969.5
20 15.09 С 1 н/о н/о +17.3 +16.2 93 +18 +18 1022.3 969.8
21 15.09 СВ 1 н/о н/о +16.5 +15.8 96 +17 +17 1022.5 969.8
22 15.09 штиль 0 н/о н/о +16.1 +15.4 96 +16 +16 1022.6 969.8
23 15.09 СВ 1 н/о н/о +15.8 +15.3 97 +16 +16 1022.5 969.7
00 16.09 СЗ 1 н/о н/о +16.1 +15.9 99 +17 +17 1022.3 969.5
01 16.09 СЗ 1 н/о н/о +15.6 +15.3 98 +16 +16 1022.2 969.3
02 16.09 штиль 0 н/о н/о +15.4 +15.0 97 +15 +15 1021.9 969.0
03 16.09 штиль 0 н/о н/о +15.3 +14.9 97 +15 +15 1021.7 968.8
04 16.09 С 1 н/о н/о +15.6 +15.3 98 +16 +16 1021.3 968.5
05 16.09 С 1 н/о н/о +15.6 +15.1 97 +16 +16 1021.5 968.7
06 16.09 С 1 н/о н/о +15.6 +15.0 96 +16 +16 1021.5 968.7 +15.0 +19.8
07 16.09 З 1 н/о н/о +15.8 +14.6 93 +16 +16 1021.5 968.7
08 16.09 СЗ 1 н/о н/о +16.6 +14.9 90 +17 +17 1021.5 968.8
09 16.09 штиль 0 н/о н/о +19.1 +16.1 83 +20 +20 1020.3 968.2
10 16.09 Ю 1 н/о н/о +21.7 +16.7 73 +26 +26 душно 1019.0 967.4
11 16.09 ЮВ 2 н/о н/о +22.5 +16.4 68 +27 +27 душно 1018.1 966.7
12 16.09 В 1 н/о н/о +24.6 +16.5 61 +28 +28 душно 1016.6 965.6
13 16.09 ЮВ 2 н/о н/о +25.6 +17.0 59 +29 +29 душно 1015.5 964.7
14 16.09 В 1 н/о н/о +26.6 +15.6 51 +30 +30 душно 1014.4 963.8
15 16.09 В 1 н/о н/о +27.1 +16.3 52 +31 +31 душно 1013.9 963.4
16 16.09 В 1 н/о н/о +25.8 +16.9 58 +30 +30 душно 1013.6 963.0
17 16.09 штиль 0 н/о н/о +23.5 +18.6 74 +28 +28 душно 1014.0 963.0
18 16.09 ЮВ 1 н/о н/о +21.0 +17.2 79 +26 +26 душно 1014.8 963.3 +15.5 +27.6
19 16.09 С 1 н/о н/о +20.2 +17.1 82 +24 +24 комфорт 1015.4 963.7
20 16.09 штиль 0 н/о н/о +19.2 +16.8 86 +21 +21 комфорт 1015.9 964.0
21 16.09 штиль 0 н/о н/о +18.2 +16.5 90 +19 +19 1016.2 964.1
22 16.09 С 1 н/о н/о +17.7 +16.7 94 +19 +19 1016.3 964.1
23 16.09 С 1 н/о н/о +17.0 +16.2 95 +18 +18 1016.4 964.1
00 17.09 С 1 н/о н/о +16.8 +16.1 96 +18 +18 1016.1 963.8
01 17.09 штиль 0 н/о н/о +17.0 +16.2 95 +17 +17 1015.8 963.5
02 17.09 СЗ 1 н/о н/о +16.9 +16.0 94 +18 +18 1015.5 963.2
03 17.09 СВ 1 н/о н/о +16.5 +15.7 95 +17 +17 1015.7 963.3
04 17.09 штиль 0 н/о н/о +16.4 +15.6 95 +16 +16 1015.4 963.0
05 17.09 В 1 н/о н/о +16.2 +15.7 97 +17 +17 1015.7 963.3
06 17.09 штиль 0 н/о н/о +17.0 +16.1 94 +17 +17 1015.6 963.3 +15.8 +21.2
07 17.09 ЮЗ 1 н/о н/о +18.7 +16.3 86 +21 +21 комфорт 1015.2 963.3
08 17.09 ЮВ 1 н/о н/о +20.3 +16.8 80 +24 +24 комфорт 1015.1 963.5
09 17.09 Ю 1 н/о н/о +22.0 +17.3 75 +26 +26 душно 1014.6 963.3
10 17.09 Ю 2 н/о н/о +23.1 +16.4 66 +28 +28 душно 1013.7 962.6
11 17.09 Ю 2 н/о н/о +24.2 +16.7 63 +28 +28 душно 1013.0 962.1
12 17.09 Ю 2 н/о н/о +24.9 +16.7 60 +28 +28 жарко 1012.0 961.3
13 17.09 В 1 н/о н/о +24.9 +17.0 62 +29 +29 душно 1011.5 960.8
14 17.09 Ю 1 н/о н/о +24.5 +17.7 66 +29 +29 душно 1010.9 960.2
15 17.09 Ю 1 н/о н/о +25.5 +16.1 56 +29 +29 душно 1010.3 959.8
16 17.09 З 1 н/о н/о +24.1 +18.3 70 +29 +29 душно 1010.5 959.8
17 17.09 С 1 н/о осадки н/о +22.6 +18.2 76 +28 +28 душно 1010.9 959.9 0.1
18 17.09 З 2 н/о в посл. час осадки н/о +20.6 +18.9 90 +25 +25 комфорт 1012.4 961.0 +16.8 +26.5 0.2
19 17.09 З 1 н/о н/о +19.8 +17.7 88 +24 +24 комфорт 1013.0 961.4
20 17.09 СЗ 2 н/о н/о +19.0 +17.5 91 +21 +21 комфорт 1014.0 962.2 0.0
21 17.09 С 1 н/о н/о +17.9 +17.1 95 +19 +19 1014.4 962.4 0.0
22 17.09 СВ 1 н/о н/о +17.4 +16.5 94 +18 +18 1014.6 962.5
23 17.09 С 1 н/о н/о +17.5 +16.9 96 +19 +19 1014.6 962.5
00 18.09 С 1 н/о н/о +17.2 +16.4 95 +18 +18 1014.8 962.6 0.0
01 18.09 штиль 0 н/о н/о +17.4 +16.9 97 +17 +17 1015.1 963.0
02 18.09 В 2 н/о н/о +17.1 +15.5 90 +17 +17 1015.4 963.2
03 18.09 штиль 0 н/о н/о +16.6 +15.2 91 +16 +16 1016.1 963.7
04 18.09 штиль 0 н/о н/о +16.1 +14.8 92 +16 +16 1016.8 964.3
05 18.09 ЮВ 1 н/о н/о +15.8 +14.1 90 +16 +16 1017.3 964.7
06 18.09 В 2 н/о н/о +15.7 +14.2 91 +16 +16 1018.2 965.5 +15.0 +20.7 0.0
07 18.09 СВ 1 н/о н/о +16.9 +14.6 86 +18 +18 1018.3 965.9
08 18.09 СВ 1 н/о н/о +17.7 +14.6 82 +19 +19 1018.8 966.5
09 18.09 В 3 н/о н/о +18.1 +13.4 74 +18 +18 1019.2 966.9
10 18.09 В 3 н/о н/о +17.9 +12.9 73 +18 +18 1019.5 967.1
11 18.09 З 2 н/о н/о +16.8 +12.3 75 +17 +17 1020.2 967.6
12 18.09 СВ 2 н/о н/о +17.2 +11.4 69 +18 +18 1019.9 967.4
13 18.09 В 2 н/о н/о +17.5 +11.9 70 +18 +18 1019.8 967.3
14 18.09 штиль 0 н/о н/о +17.4 +12.1 71 +17 +17 1019.8 967.3
15 18.09 В 2 н/о н/о +16.8 +10.6 67 +17 +17 1019.9 967.3
16 18.09 СВ 2 н/о н/о +15.8 +10.2 69 +16 +16 1020.4 967.6

 

Местоположение метеостанции Пёрчах-ам-Вёртерзе (Австрия): широта 46.63 долгота 14.17 высота над уровнем моря 452 м.

В архиве по умолчанию представлена погода в Пёрчах-ам-Вёртерзе за последнюю неделю. Архивные данные за месяц целиком и за предыдущие месяцы, начиная с января 2011 года, Вы можете получить, выбрав интересующий диапазон дат из раскрывающегося списка и нажав кнопку "Ввод!".


*Определитесь, кто Вы:
робот инопланетянин человек

Внимание! Время в таблицах - всемирное. Для получения местного времени необходимо прибавить поправку, которая равна 1 ч.

Смотрите также архив погоды в соседних городах и на ближайших метеорологических станциях:

Погода в Фельдкирхене (Австрия) (11 км)
Погода в Клагенфурте (Австрия) (11 км)
Погода в Клагенфурте (Австрия) (12 км)
Погода в Филлахе (Австрия) (22 км)
Погода в Вайтенсфельд-им-Гурктале (Австрия) (25 км)
Погода в Арриахе (Австрия) (27 км)
Погода в Лесце (Словения) (29 км)
Погода Айзенкаппель-Феллах (Австрия) (37 км)
Погода на Кредарике (Словения) (37 км)
Погода в Ратеце (Словения) (37 км)

Пояснения к столбцам:

Ветер - указаны скорость ветра в м/с - средняя за 10 мин, порывы в срок и между сроками (в фигурных скобках) и направление, откуда дует ветер: С - северный, СВ - северо-восточный, В - восточный, ЮВ - юго-восточный, Ю - южный, ЮЗ - юго-западный, З - западный, СЗ - северо-западный.
Видимость - горизонтальная дальность видимости в метрах или километрах. При видимости от 1 до 10 км при отсутствии осадков обычно наблюдается дымка, при ухудшении видимости до 1 км и менее - туман. В сухую погоду видимость может ухудшаться дымом, пылью или мглою.
Явления - указаны атмосферные явления, наблюдавшиеся в срок или в последний час перед сроком; фигурными скобками обозначены явления, наблюдавшиеся между сроками (за 1-3 часа до срока); квадратными скобками обозначены град или гололедные отложения с указанием их диаметра в мм.
Облачность - указаны через наклонную черту общая и нижняя облачность в баллах и высота нижней границы облаков в метрах; квадратными скобками обозначены формы облаков: Ci - перистые, Cs - перисто-слоистые, Cc - перисто-кучевые, Ac - высококучевые, As - высокослоистые, Sc - слоисто-кучевые, Ns - слоисто-дождевые, Cu - кучевые, Cb - кучево-дождевые. Подробнее классификацию облаков см. в Атласе облаков (PDF).
T - Температура воздуха - температура, измеренная на высоте 2 м над землей.
Td - Температура точки росы - температура, при понижении до которой содержащийся в воздухе водяной пар достигнет насыщения.
f - Относительная влажность воздуха - влажноcть воздуха, измеренная на высоте 2 м над землей.
Te - Эффективная температура - температура, которую ощущает одетый по сезону человек в тени. Характеристика душности погоды. При расчете учитывается влияние влажности воздуха и скорости ветра на теплоощущения человека.
Tes - Эффективная температура на солнце - температура, которую ощущает человек, с поправкой на солнечный нагрев. Характеристика знойности погоды. Зависит от высоты солнца над горизонтом, облачности и скорости ветра. Ночью, в пасмурную погоду, а также при ветре 12 м/с и более поправка равна нулю.
P - Атмосферное давление - приведенное к уровню моря атмосферное давление.
Po - Атмосферное давление - измеренное на уровне метеостанции атмосферное давление.
Tmin - Минимальная температура - минимум температуры воздуха на высоте 2 м над землей.
Tmax - Максимальная температура - максимум температуры воздуха на высоте 2 м над землей.
R - Количество осадков - Количество выпавших осадков за период времени, мм. При наведении курсора мыши на число - период времени, за который выпало указанное количество осадков.
R24 - Количество осадков - Количество выпавших осадков за 24 часа, мм.
S - Снежный покров - Высота снежного покрова, см. При наведении курсора мыши на число - состояние снежного покрова и степень покрытия местности в баллах.